TimeMST,TemperatureF,Dew PointF,Humidity,Sea Level PressureIn,VisibilityMPH,Wind Direction,Wind SpeedMPH,Gust SpeedMPH,PrecipitationIn,Events,Conditions,WindDirDegrees,DateUTC
12:13 AM,39.2,32.0,75,30.28,10.0,South,18.4,-,N/A,,Overcast,180,2013-12-24 07:13:00
12:28 AM,39.2,30.2,70,30.27,10.0,South,19.6,-,N/A,,Overcast,180,2013-12-24 07:28:00
12:32 AM,39.2,30.2,70,30.27,10.0,South,17.3,-,N/A,,Overcast,180,2013-12-24 07:32:00
12:43 AM,37.4,32.0,81,30.28,10.0,South,15.0,-,N/A,,Overcast,190,2013-12-24 07:43:00
12:58 AM,37.9,30.2,74,30.28,10.0,South,17.3,-,0.00,,Overcast,190,2013-12-24 07:58:00
1:25 AM,37.4,32.0,81,30.27,10.0,South,17.3,-,N/A,,Overcast,190,2013-12-24 08:25:00
1:30 AM,37.4,32.0,81,30.28,10.0,South,17.3,-,N/A,,Overcast,190,2013-12-24 08:30:00
1:45 AM,37.4,32.0,81,30.27,10.0,South,13.8,-,N/A,,Overcast,180,2013-12-24 08:45:00
1:48 AM,37.4,32.0,81,30.26,10.0,South,15.0,-,N/A,,Overcast,180,2013-12-24 08:48:00
1:58 AM,37.6,30.4,75,30.27,10.0,South,16.1,-,0.00,,Overcast,170,2013-12-24 08:58:00
2:58 AM,38.3,30.0,72,30.26,10.0,South,16.1,-,N/A,,Overcast,180,2013-12-24 09:58:00
3:58 AM,37.9,30.0,73,30.25,10.0,South,13.8,-,N/A,,Overcast,170,2013-12-24 10:58:00
4:58 AM,37.2,30.0,75,30.25,10.0,South,13.8,-,N/A,,Overcast,180,2013-12-24 11:58:00
5:28 AM,37.4,30.2,75,30.26,10.0,WNW,9.2,-,N/A,,Overcast,300,2013-12-24 12:28:00
5:46 AM,37.4,30.2,75,30.28,10.0,NNE,4.6,-,N/A,,Overcast,20,2013-12-24 12:46:00
5:57 AM,37.4,30.2,75,30.29,10.0,Variable,3.5,-,N/A,,Overcast,0,2013-12-24 12:57:00
5:58 AM,37.4,30.2,75,30.30,9.0,NNW,3.5,-,0.00,,Overcast,340,2013-12-24 12:58:00
5:59 AM,37.4,30.2,75,30.29,9.0,NNW,3.5,-,N/A,Snow,Light Snow,340,2013-12-24 12:59:00
6:09 AM,37.4,30.2,75,30.29,9.0,North,5.8,-,N/A,Snow,Light Snow,360,2013-12-24 13:09:00
6:14 AM,35.6,32.0,87,30.30,10.0,NNE,3.5,-,N/A,Snow,Light Snow,20,2013-12-24 13:14:00
6:19 AM,35.6,32.0,87,30.30,10.0,North,2.3,-,N/A,Snow,Light Snow,10,2013-12-24 13:19:00
6:21 AM,35.6,30.2,81,30.30,10.0,Variable,2.3,-,N/A,,Overcast,0,2013-12-24 13:21:00
6:41 AM,37.4,30.2,75,30.30,10.0,NW,4.6,-,N/A,,Overcast,320,2013-12-24 13:41:00
6:51 AM,37.4,30.2,75,30.30,10.0,NNW,5.8,-,N/A,,Overcast,330,2013-12-24 13:51:00
6:58 AM,36.5,30.2,78,30.32,10.0,NW,5.8,-,0.00,,Overcast,310,2013-12-24 13:58:00
7:58 AM,37.4,26.6,65,30.35,10.0,North,17.3,25.3,N/A,,Mostly Cloudy,350,2013-12-24 14:58:00
8:58 AM,34.2,21.4,60,30.40,10.0,NNW,18.4,23.0,N/A,,Scattered Clouds,340,2013-12-24 15:58:00
9:58 AM,34.5,19.6,54,30.45,10.0,North,8.1,-,N/A,,Clear,360,2013-12-24 16:58:00
10:58 AM,35.2,15.6,45,30.47,10.0,North,6.9,-,N/A,,Partly Cloudy,10,2013-12-24 17:58:00
11:58 AM,34.7,19.2,53,30.47,10.0,NW,10.4,-,N/A,,Clear,310,2013-12-24 18:58:00
12:58 PM,34.5,20.1,56,30.45,10.0,North,6.9,-,N/A,,Clear,350,2013-12-24 19:58:00
1:58 PM,34.7,21.0,57,30.45,10.0,NNW,6.9,-,N/A,,Clear,340,2013-12-24 20:58:00
2:58 PM,34.7,21.2,58,30.45,10.0,NNW,5.8,-,N/A,,Clear,340,2013-12-24 21:58:00
3:58 PM,34.2,20.8,58,30.49,10.0,North,4.6,-,N/A,,Clear,350,2013-12-24 22:58:00
4:58 PM,32.0,20.1,62,30.48,10.0,Calm,Calm,-,N/A,,Clear,0,2013-12-24 23:58:00
5:58 PM,27.0,18.9,72,30.51,10.0,Calm,Calm,-,N/A,,Clear,0,2013-12-25 00:58:00
6:58 PM,29.3,18.9,65,30.53,10.0,NE,2.3,-,N/A,,Clear,40,2013-12-25 01:58:00
7:58 PM,23.7,17.1,76,30.55,10.0,ENE,2.3,-,N/A,,Clear,60,2013-12-25 02:58:00
8:58 PM,24.4,15.6,69,30.55,10.0,NE,2.3,-,N/A,,Clear,50,2013-12-25 03:58:00
9:58 PM,25.3,15.3,66,30.55,10.0,ENE,2.3,-,N/A,,Clear,60,2013-12-25 04:58:00
10:58 PM,23.9,14.9,69,30.57,10.0,East,2.3,-,N/A,,Clear,100,2013-12-25 05:58:00
11:58 PM,22.5,14.2,71,30.59,10.0,ENE,3.5,-,N/A,,Clear,60,2013-12-25 06:58:00